TimeADT,TemperatureF,Dew PointF,Humidity,Sea Level PressureIn,VisibilityMPH,Wind Direction,Wind SpeedMPH,Gust SpeedMPH,PrecipitationIn,Events,Conditions,WindDirDegrees,DateUTC
12:00 AM,57.2,53.6,88,29.95,15.0,WSW,6.9,-,N/A,,Mostly Cloudy,240,2013-09-20 03:00:00
1:00 AM,57.2,53.6,88,29.94,15.0,West,6.9,-,N/A,,Mostly Cloudy,260,2013-09-20 04:00:00
2:00 AM,57.2,53.6,88,29.97,15.0,NW,3.5,-,N/A,,Mostly Cloudy,320,2013-09-20 05:00:00
3:00 AM,59.0,53.6,82,29.96,15.0,West,4.6,-,N/A,,Mostly Cloudy,270,2013-09-20 06:00:00
4:00 AM,55.4,53.6,94,29.97,15.0,NNW,3.5,-,N/A,,Scattered Clouds,330,2013-09-20 07:00:00
5:00 AM,55.4,51.8,88,29.98,15.0,NNW,4.6,-,N/A,,Mostly Cloudy,330,2013-09-20 08:00:00
6:00 AM,55.4,53.6,94,29.99,15.0,North,6.9,-,N/A,,Scattered Clouds,360,2013-09-20 09:00:00
7:00 AM,55.4,53.6,94,30.02,15.0,North,10.4,-,N/A,,Mostly Cloudy,10,2013-09-20 10:00:00
8:00 AM,57.2,53.6,88,30.04,15.0,NE,13.8,-,N/A,,Overcast,40,2013-09-20 11:00:00
8:10 AM,57.2,53.6,88,30.05,15.0,NE,11.5,18.4,N/A,,Overcast,40,2013-09-20 11:10:00
9:00 AM,56,53,87,30.07,15,NE,15.0,,,,Overcast,40,2013-09-20 12:00:00
9:00 AM,57.2,53.6,88,30.07,15.0,NE,17.3,-,N/A,,Overcast,40,2013-09-20 12:00:00
9:53 AM,55.4,51.8,88,30.10,15.0,NE,15.0,21.9,N/A,,Overcast,50,2013-09-20 12:53:00
10:00 AM,55.4,51.8,88,30.10,15.0,NE,17.3,-,N/A,,Overcast,40,2013-09-20 13:00:00
11:00 AM,55.4,51.8,88,30.14,15.0,NE,12.7,19.6,N/A,,Overcast,50,2013-09-20 14:00:00
12:00 PM,55.4,50.0,82,30.16,15.0,NE,12.7,-,N/A,,Overcast,50,2013-09-20 15:00:00
1:00 PM,57.2,50.0,77,30.15,15.0,ENE,17.3,-,N/A,,Mostly Cloudy,60,2013-09-20 16:00:00
2:00 PM,53.6,46.4,77,30.17,15.0,NE,15.0,-,N/A,,Overcast,50,2013-09-20 17:00:00
3:00 PM,53,46,69,30.17,15,NE,12.7,,,,Overcast,50,2013-09-20 18:00:00
3:00 PM,53.6,46.4,77,30.17,15.0,NE,13.8,-,N/A,,Overcast,50,2013-09-20 18:00:00
4:00 PM,53.6,44.6,72,30.17,15.0,NE,12.7,18.4,N/A,,Mostly Cloudy,50,2013-09-20 19:00:00
5:00 PM,53.6,44.6,72,30.17,15.0,NE,13.8,-,N/A,,Mostly Cloudy,50,2013-09-20 20:00:00
6:00 PM,51.8,42.8,71,30.18,15.0,NE,11.5,-,N/A,,Mostly Cloudy,50,2013-09-20 21:00:00
7:00 PM,50.0,42.8,76,30.18,15.0,ENE,8.1,-,N/A,,Mostly Cloudy,60,2013-09-20 22:00:00
8:00 PM,48.2,41.0,76,30.18,15.0,NE,6.9,-,N/A,,Mostly Cloudy,50,2013-09-20 23:00:00
9:00 PM,46.4,41.0,81,30.19,15.0,ENE,4.6,-,N/A,,Scattered Clouds,60,2013-09-21 00:00:00
10:00 PM,48.2,42.8,82,30.20,15.0,East,2.3,-,N/A,,Mostly Cloudy,80,2013-09-21 01:00:00
11:00 PM,48.2,42.8,82,30.19,15.0,East,4.6,-,N/A,,Mostly Cloudy,100,2013-09-21 02:00:00